Flag for Canada Weather past 2 weeks in Coral Harbour, Nunavut Territory, Canada

Now
7 °F

Sunny.


Feels Like: -10 °F
Forecast: 10 / 16 °F
Wind: 14 mph from North

Location: Coral Harbour

Current Time: Oct 23, 2014 at 1:15:00 PM

Latest Report: Oct 23, 2014 at 12:00 PM


Visibility: 15 mi

Pressure: 30.30 "Hg

Humidity: 66%

Dew point: -2 °F

Location of Coral HarbourLocation

Historic Weather in Coral Harbour — Graph

°F

Coral Harbour temperature yesterday

Maximum temperature yesterday: 34 °F (at 4:00 AM)
Minimum temperature yesterday: 16 °F (at 10:00 PM)
Average temperature yesterday: 27 °F

Past Weeks' High & Low Weather Summary

 TemperatureHumidityPressure
High34 °F (Oct 8, 12:00 PM)100% (Oct 21, 7:00 PM)30.30 "Hg (Oct 21, 7:00 PM)
Low3 °F (Oct 23, 9:00 AM)64% (Oct 10, 2:00 PM)29.24 "Hg (Oct 11, 3:00 PM)
Average24 °F83%29.85 "Hg
* Reported Oct 8 12:00 Noon — Oct 23 12:00 Noon, Coral Harbour, Weather by CustomWeather, © 2014

Note: Actual official high and low records may vary slightly from our data, if they occured in-between our weather recording intervals... More about our weather records

Advertising

Coral Harbour weather history for previous 24 hours

 ConditionsComfort  
Time TempWeatherWind HumidityBarometerVisibility
12:00 PM
Oct 23
7 °FSunny.14 mph66%30.30 "Hg15 mi
11:00 AM5 °FSunny.12 mph72%30.28 "Hg15 mi
10:00 AM3 °FSunny.9 mph72%30.27 "Hg15 mi
9:00 AM3 °FSunny.10 mph72%30.23 "Hg15 mi
8:00 AM5 °FPassing clouds.7 mph72%30.23 "Hg15 mi
7:00 AM7 °FPassing clouds.6 mph78%30.20 "Hg15 mi
6:00 AM7 °FPassing clouds.14 mph72%30.18 "Hg15 mi
5:00 AM5 °FPassing clouds.13 mph78%30.16 "Hg15 mi
4:00 AM7 °FPassing clouds.10 mph78%30.13 "Hg15 mi
3:00 AM9 °FPassing clouds.13 mph78%30.10 "Hg15 mi
2:00 AM12 °FPassing clouds.16 mph79%30.07 "Hg15 mi
1:00 AM12 °FPassing clouds.10 mph85%30.05 "Hg15 mi
12:00 AM16 °FPassing clouds.10 mph79%30.03 "Hg15 mi
11:00 PM
Oct 22
18 °FPassing clouds.7 mph79%30.02 "Hg15 mi
10:00 PM16 °FPassing clouds.9 mph86%29.98 "Hg15 mi
9:00 PM19 °FPassing clouds.10 mph79%29.96 "Hg15 mi
8:00 PM23 °FOvercast.13 mph80%29.93 "Hg15 mi
7:00 PM27 °FOvercast.14 mph74%29.90 "Hg15 mi
6:00 PM27 °FOvercast.17 mph80%29.87 "Hg15 mi
5:00 PM28 °FOvercast.14 mph80%29.84 "Hg15 mi
4:00 PM28 °FOvercast.12 mph80%29.80 "Hg15 mi
3:00 PM30 °FOvercast.8 mph80%29.78 "Hg15 mi
2:00 PM30 °FOvercast.7 mph80%29.76 "Hg15 mi
1:00 PM28 °FPartly sunny.13 mph80%29.73 "Hg15 mi
Weather by CustomWeather, © 2014

See weather overviewHow to use our weather pages